IU2EVW-3 Weather Reports


time (UTC)temp
F
wind
direction
speed
knots
gust
knots
rain 1hr
in
rain 24hr
in
rain mn
in
humidity
%
barometer
mb
20260506230045 54 0.0 0.0 0.00 0.00 0.00 70 1011.8
20260506224044 54 0.0 0.0 0.00 0.00 0.00 69 1011.8
20260506222043 54 0.0 0.0 0.00 0.00 0.00 69 1011.8
20260506220041 55 0.0 0.0 0.00 0.00 0.00 69 1011.7
20260506214040 55 0.0 0.0 0.00 0.00 0.00 69 1011.7
20260506212039 55 0.0 0.0 0.00 0.00 0.00 70 1011.6
20260506210038 55 0.0 0.0 0.00 0.00 0.00 70 1011.5
20260506204037 55 0.0 0.0 0.00 0.00 0.00 71 1011.4
20260506202035 55 0.0 0.0 0.00 0.00 0.00 67 1011.3
20260506200034 56 0.0 0.0 0.00 0.00 0.00 64 1011.1
20260506194033 56 0.0 0.0 0.00 0.00 0.00 65 1010.8
20260506192032 56 0.0 0.0 0.00 0.00 0.00 67 1010.5
20260506190030 56 0.0 0.0 0.00 0.00 0.00 68 1010.2
20260506184029 56 0.0 0.0 0.00 0.00 0.00 72 1010.2
20260506182028 57 0.0 0.0 0.00 0.00 0.00 68 1009.7
20260506180027 56 0.0 0.0 0.00 0.00 0.00 67 1009.5
20260506174026 57 0.0 0.0 0.00 0.00 0.00 66 1009.2
20260506172024 57 0.0 0.0 0.00 0.00 0.00 66 1008.9
20260506170023 57 0.0 0.0 0.00 0.00 0.00 66 1008.6
20260506164022 58 0.0 0.0 0.00 0.00 0.00 66 1008.5
20260506162021 59 0.0 0.0 0.00 0.00 0.00 63 1008.1
20260506160020 59 0.0 0.0 0.00 0.00 0.00 60 1007.4
20260506154018 62 0.0 0.0 0.00 0.00 0.00 58 1007.5
20260506152017 60 0.0 0.0 0.00 0.00 0.00 62 1007.4
20260506150016 66 0.0 0.0 0.00 0.00 0.00 67 1007.0
20260506144015 67 0.0 0.0 0.00 0.00 0.00 63 1006.8
20260506142014 68 0.0 0.0 0.00 0.00 0.00 64 1006.9
20260506140012 67 0.0 0.0 0.00 0.00 0.00 64 1007.2
20260506134011 66 0.0 0.0 0.00 0.00 0.00 67 1007.6
20260506132010 66 0.0 0.0 0.00 0.00 0.00 66 1007.9
20260506130009 66 0.0 0.0 0.00 0.00 0.00 69 1008.1
20260506124007 66 0.0 0.0 0.00 0.00 0.00 67 1008.0
20260506122006 64 0.0 0.0 0.00 0.00 0.00 70 1008.2
20260506120005 66 0.0 0.0 0.00 0.00 0.00 67 1008.3
20260506114005 65 0.0 0.0 0.00 0.00 0.00 69 1008.6
20260506112003 66 0.0 0.0 0.00 0.00 0.00 68 1008.8
20260506110002 64 0.0 0.0 0.00 0.00 0.00 71 1009.0
20260506104001 63 0.0 0.0 0.00 0.00 0.00 73 1009.2
20260506102000 62 0.0 0.0 0.00 0.00 0.00 75 1009.2
20260506095958 62 0.0 0.0 0.00 0.00 0.00 75 1009.3
20260506093957 61 0.0 0.0 0.00 0.00 0.00 79 1009.1
20260506091956 60 0.0 0.0 0.00 0.00 0.00 82 1009.2
20260506085955 59 0.0 0.0 0.00 0.00 0.00 84 1009.3
20260506083953 55 0.0 0.0 0.00 0.00 0.00 95 1009.5
20260506081952 55 0.0 0.0 0.00 0.00 0.00 95 1009.9
20260506071949 56 0.0 0.0 0.00 0.00 0.00 90 1009.4
20260506062011 54 0.0 0.0 0.00 0.00 0.00 96 1010.0
20260506043939 54 0.0 0.0 0.00 0.00 0.00 99 1010.4
20260506041938 54 0.0 0.0 0.00 0.00 0.00 99 1010.7
20260506035937 54 0.0 0.0 0.00 0.00 0.00 99 1010.7
20260506033935 54 0.0 0.0 0.00 0.00 0.00 99 1010.8
20260506031934 54 0.0 0.0 0.00 0.00 0.00 98 1010.7
20260506025933 54 0.0 0.0 0.00 0.00 0.00 97 1010.8
20260506023932 54 0.0 0.0 0.00 0.00 0.00 97 1011.5
20260506021931 54 0.0 0.0 0.00 0.00 0.00 97 1011.6
20260506015929 54 0.0 0.0 0.00 0.00 0.00 97 1011.8
20260506013928 54 0.0 0.0 0.00 0.00 0.00 96 1011.7
20260506011927 54 0.0 0.0 0.00 0.00 0.00 96 1011.8
20260506005926 54 0.0 0.0 0.00 0.00 0.00 95 1011.7
20260506003924 54 0.0 0.0 0.00 0.00 0.00 94 1012.1
20260506001923 55 0.0 0.0 0.00 0.00 0.00 95 1012.4
20260505235922 54 0.0 0.0 0.00 0.00 0.00 95 1012.6
20260505233921 55 0.0 0.0 0.00 0.00 0.00 94 1012.7
20260505231920 55 0.0 0.0 0.00 0.00 0.00 94 1012.9